Terug naar catalogus

CZ-6A DEB

ActiefSSO
NORAD 55872·DEBRIS·🇨🇳 China

Gelanceerd Nov 11, 2022 vanaf Taiyuan Satellite Launch Center

Loading…

Volgende Passages (komende 24 uur)

TLE

VersSource: Space-Track

Epoch: Sep 14, 2026, 22:52 UTC

1 55872U 22151ZU  26257.95300698  .00000180  00000-0  12262-3 0  9995
2 55872  98.8394 258.4747 0041176  59.3045 301.2174 14.11409148185704

Volg CZ-6A DEB in realtime met AllMySat

Download on the App Store